Date String (YYYY-MM-DD hh:mm:ss) UTC,Instrument flags,absolute air pressure of the measurement (hPa),sample flow rate (lpm),inlet stack bypass flow (lpm),air temperature of the measurement (°C),ambient temperature measured by the external sensor (°C),aerosol sample conditioner tube jacket temperature (°C),OPC LED temperature (°C),internal box temperature (°C),relative humidity of the measurement (%),span deviation,mass concentration of particles derived from Lorenz-Mie calculation of OPC scattering (μg/m³),mass concentration of particles derived from Lorenz-Mie calculation of OPC scattering (μg/m³),mass concentration of particles derived from Lorenz-Mie calculation of OPC scattering (μg/m³)
DateTimeUTC,F1_M11,P_M11,Q1_M11,Q2_M11,T1_M11,T2_M11,T3_M11,T4_M11,T5_M11,U1_M11,ZSPAN_M11,X2_M11,X0_M11,X1_M11
2023-11-05 19:00:00,SystemResetWarning,0824.8,4.99,000.00,027.8,026.6,000.0,036.0,029.4,9.0,0000.0,0001.89,0003.62,0001.58
2023-11-05 19:01:00,SystemResetWarning,0824.9,5.00,000.00,027.8,025.1,000.0,035.9,029.2,9.0,0000.0,0001.87,0003.68,0001.57
2023-11-05 19:02:00,SystemResetWarning,0824.9,5.00,000.00,027.7,023.9,000.0,035.9,028.9,9.0,0000.0,0001.90,0003.82,0001.57
2023-11-05 19:03:00,SystemResetWarning,0824.8,5.02,000.00,027.6,024.1,000.0,035.8,028.8,9.0,0000.0,0001.97,0004.87,0001.57
2023-11-05 19:04:00,SystemResetWarning,0824.8,5.00,000.00,027.5,024.5,000.0,035.8,028.5,9.1,0000.0,0002.01,0006.87,0001.57
2023-11-05 19:05:00,SystemResetWarning,0824.8,4.99,000.00,027.4,024.8,000.0,035.8,028.6,9.1,0000.0,0002.07,0007.75,0001.58
2023-11-05 19:06:00,SystemResetWarning,0824.7,4.99,000.00,027.4,025.2,000.0,035.8,028.7,9.3,0000.0,0002.10,0007.81,0001.58
2023-11-05 19:07:00,SystemResetWarning,0824.7,5.00,000.00,027.4,025.5,000.0,035.7,028.8,9.3,0000.0,0002.09,0007.80,0001.58
2023-11-05 19:08:00,SystemResetWarning,0824.8,5.00,000.00,027.5,025.8,000.0,035.7,028.9,9.3,0000.0,0002.13,0008.26,0001.60
2023-11-05 19:09:00,SystemResetWarning,0824.8,5.01,000.00,027.5,026.0,000.0,035.7,028.9,9.1,0000.0,0002.17,0008.42,0001.61
2023-11-05 19:10:00,SystemResetWarning,0824.7,4.99,000.00,027.5,026.2,000.0,035.7,029.0,9.0,0000.0,0002.21,0008.45,0001.62
2023-11-05 19:11:00,SystemResetWarning,0824.5,4.99,000.00,027.5,026.4,000.0,035.8,029.0,8.9,0000.0,0002.24,0009.12,0001.63
2023-11-05 19:12:00,SystemResetWarning,0824.6,4.99,000.00,027.6,026.5,000.0,035.8,029.1,8.9,0000.0,0002.28,0009.11,0001.64
2023-11-05 19:13:00,SystemResetWarning,0824.5,5.00,000.00,027.6,026.6,000.0,035.8,029.2,8.9,0000.0,0002.25,0009.15,0001.63
2023-11-05 19:14:00,SystemResetWarning,0824.5,5.01,000.00,027.7,026.4,000.0,035.8,029.2,8.9,0000.0,0002.24,0008.88,0001.64
2023-11-05 19:15:00,SystemResetWarning,0824.5,4.99,000.00,027.6,024.7,000.0,035.8,029.0,8.8,0000.0,0002.25,0009.16,0001.65
2023-11-05 19:16:00,SystemResetWarning,0824.4,5.01,000.00,027.5,023.7,000.0,035.7,028.7,8.8,0000.0,0002.30,0009.60,0001.65
2023-11-05 19:17:00,SystemResetWarning,0824.4,5.01,000.00,027.4,023.9,000.0,035.7,028.5,9.0,0000.0,0002.33,0010.15,0001.65
2023-11-05 19:18:00,SystemResetWarning,0824.3,5.00,000.00,027.3,024.3,000.0,035.6,028.3,9.0,0000.0,0002.42,0010.46,0001.66
2023-11-05 19:19:00,SystemResetWarning,0824.4,5.00,000.00,027.2,024.6,000.0,035.6,028.4,9.0,0000.0,0002.48,0010.33,0001.67
2023-11-05 19:20:00,SystemResetWarning,0824.5,4.99,000.00,027.2,025.0,000.0,035.6,028.5,9.0,0000.0,0002.50,0010.14,0001.68
2023-11-05 19:21:00,SystemResetWarning,0824.4,4.99,000.00,027.2,025.3,000.0,035.6,028.6,9.1,0000.0,0002.50,0010.06,0001.69
2023-11-05 19:22:00,SystemResetWarning,0824.5,5.00,000.00,027.3,025.6,000.0,035.6,028.7,9.1,0000.0,0002.49,0009.13,0001.71
2023-11-05 19:23:00,SystemResetWarning,0824.4,5.00,000.00,027.3,025.8,000.0,035.6,028.8,9.2,0000.0,0002.52,0009.18,0001.74
2023-11-05 19:24:00,SystemResetWarning,0824.4,5.00,000.00,027.3,026.0,000.0,035.6,028.8,9.2,0000.0,0002.56,0009.38,0001.76
2023-11-05 19:25:00,SystemResetWarning,0824.4,5.01,000.00,027.3,026.2,000.0,035.6,028.8,9.2,0000.0,0002.57,0009.29,0001.79
2023-11-05 19:26:00,SystemResetWarning,0824.4,5.00,000.00,027.4,026.3,000.0,035.6,028.9,9.2,0000.0,0002.60,0008.44,0001.81
2023-11-05 19:27:00,SystemResetWarning,0824.4,4.99,000.00,027.4,026.4,000.0,035.6,029.0,9.2,0000.0,0002.56,0007.44,0001.82
2023-11-05 19:28:00,SystemResetWarning,0824.4,4.99,000.00,027.5,026.5,000.0,035.6,029.1,9.1,0000.0,0002.54,0007.50,0001.83
2023-11-05 19:29:00,SystemResetWarning,0824.4,5.00,000.00,027.5,026.6,000.0,035.6,029.1,9.2,0000.0,0002.52,0007.72,0001.84
2023-11-05 19:30:00,SystemResetWarning,0824.4,5.00,000.00,027.6,026.7,000.0,035.7,029.2,8.9,0000.0,0002.47,0007.95,0001.84
2023-11-05 19:31:00,SystemResetWarning,0824.3,5.00,000.00,027.6,026.8,000.0,035.7,029.2,9.1,0000.0,0002.46,0008.51,0001.84
2023-11-05 19:32:00,SystemResetWarning,0824.3,5.01,000.00,027.7,026.9,000.0,035.7,029.3,9.1,0000.0,0002.45,0008.60,0001.83
2023-11-05 19:33:00,SystemResetWarning,0824.2,5.01,000.00,027.7,026.9,000.0,035.8,029.3,9.2,0000.0,0002.48,0008.57,0001.84
2023-11-05 19:34:00,SystemResetWarning,0824.3,5.00,000.00,027.7,026.9,000.0,035.8,029.4,9.1,0000.0,0002.47,0009.00,0001.84
2023-11-05 19:35:00,SystemResetWarning,0824.3,4.98,000.00,027.7,025.3,000.0,035.8,029.2,9.1,0000.0,0002.54,0009.27,0001.84
2023-11-05 19:36:00,SystemResetWarning,0824.2,5.03,000.00,027.6,023.8,000.0,035.7,028.9,9.1,0000.0,0002.59,0010.82,0001.83
2023-11-05 19:37:00,SystemResetWarning,0824.3,5.00,000.00,027.5,023.8,000.0,035.7,028.8,9.1,0000.0,0002.55,0010.76,0001.82
2023-11-05 19:38:00,SystemResetWarning,0824.3,5.00,000.00,027.4,024.2,000.0,035.7,028.5,9.4,0000.0,0002.58,0010.38,0001.81
2023-11-05 19:39:00,SystemResetWarning,0824.0,5.00,000.00,027.3,024.6,000.0,035.6,028.4,9.3,0000.0,0002.55,0010.18,0001.80
2023-11-05 19:40:00,SystemResetWarning,0824.0,5.00,000.00,027.3,024.9,000.0,035.6,028.5,9.0,0000.0,0002.55,0010.46,0001.80
2023-11-05 19:41:00,SystemResetWarning,0824.0,4.99,000.00,027.3,025.3,000.0,035.6,028.6,9.0,0000.0,0002.65,0010.13,0001.81
2023-11-05 19:42:00,SystemResetWarning,0824.0,4.99,000.00,027.3,025.5,000.0,035.6,028.7,8.9,0000.0,0002.67,0009.86,0001.82
2023-11-05 19:43:00,SystemResetWarning,0824.1,4.99,000.00,027.3,025.8,000.0,035.6,028.7,9.0,0000.0,0002.64,0009.52,0001.82
2023-11-05 19:44:00,SystemResetWarning,0824.0,5.01,000.00,027.4,026.0,000.0,035.6,028.8,9.1,0000.0,0002.65,0010.12,0001.82
2023-11-05 19:45:00,SystemResetWarning,0824.1,5.01,000.00,027.4,026.2,000.0,035.6,028.9,8.9,0000.0,0002.62,0010.15,0001.81
2023-11-05 19:46:00,SystemResetWarning,0824.0,4.99,000.00,027.4,026.3,000.0,035.6,029.0,9.0,0000.0,0002.52,0010.46,0001.80
2023-11-05 19:47:00,SystemResetWarning,0824.0,4.99,000.00,027.5,026.4,000.0,035.6,029.0,9.0,0000.0,0002.43,0008.94,0001.79
2023-11-05 19:48:00,SystemResetWarning,0824.1,5.01,000.00,027.5,026.6,000.0,035.7,029.1,9.0,0000.0,0002.48,0009.88,0001.79
2023-11-05 19:49:00,SystemResetWarning,0824.1,5.01,000.00,027.5,026.7,000.0,035.7,029.1,8.9,0000.0,0002.46,0009.99,0001.79
2023-11-05 19:50:00,SystemResetWarning,0824.0,5.00,000.00,027.6,026.7,000.0,035.7,029.2,8.8,0000.0,0002.49,0010.28,0001.80
2023-11-05 19:51:00,SystemResetWarning,0824.0,5.01,000.00,027.6,026.8,000.0,035.7,029.2,8.7,0000.0,0002.55,0010.20,0001.81
2023-11-05 19:52:00,SystemResetWarning,0824.1,4.98,000.00,027.7,026.3,000.0,035.7,029.3,8.8,0000.0,0002.44,0010.15,0001.79
2023-11-05 19:53:00,SystemResetWarning,0823.9,5.00,000.00,027.6,024.6,000.0,035.7,028.9,8.8,0000.0,0002.39,0010.01,0001.78
2023-11-05 19:54:00,SystemResetWarning,0823.9,5.01,000.00,027.5,023.7,000.0,035.6,028.6,8.8,0000.0,0002.42,0010.08,0001.79
2023-11-05 19:55:00,SystemResetWarning,0823.9,5.01,000.00,027.4,023.9,000.0,035.6,028.4,9.0,0000.0,0002.42,0009.68,0001.79
2023-11-05 19:56:00,SystemResetWarning,0824.0,4.98,000.00,027.3,024.3,000.0,035.6,028.3,9.0,0000.0,0002.47,0009.30,0001.79
2023-11-05 19:57:00,SystemResetWarning,0824.0,5.00,000.00,027.2,024.7,000.0,035.6,028.4,9.1,0000.0,0002.51,0008.63,0001.79
2023-11-05 19:58:00,SystemResetWarning,0824.0,4.99,000.00,027.2,025.0,000.0,035.5,028.5,9.1,0000.0,0002.54,0009.28,0001.79
2023-11-05 19:59:00,SystemResetWarning,0823.9,5.02,000.00,027.2,025.3,000.0,035.5,028.6,9.0,0000.0,0002.54,0008.73,0001.80
